#�ϑ�����,���ϕ���,���ϕ���,�ő啗��,�ő啗����������,�ő�u�ԕ���,�ő�u�ԕ�����������
#(�N����),(m/s)   ,(16����),(m/s)   ,(16����)        ,(m/s)       ,(16����)            
2017/10/3 0:01,0.3,6,0.3,11,1.1,1
2017/10/3 0:02,0.4,4,0.4,10,1.3,16
2017/10/3 0:03,0.4,2,0.4,5,1,16
2017/10/3 0:04,0.4,2,0.4,5,0.8,16
2017/10/3 0:05,0.5,1,0.5,1,1.1,15
2017/10/3 0:06,0.5,1,0.5,1,1.3,16
2017/10/3 0:07,0.6,16,0.6,1,1.3,15
2017/10/3 0:08,0.7,16,0.7,16,1.3,16
2017/10/3 0:09,0.8,16,0.8,16,1.1,1
2017/10/3 0:10,0.8,16,0.8,16,1.4,16
2017/10/3 0:11,0.8,16,0.8,16,1.1,16
2017/10/3 0:12,0.8,16,0.8,16,1.1,16
2017/10/3 0:13,0.8,16,0.8,16,1.3,15
2017/10/3 0:14,0.9,16,0.9,16,1.5,15
2017/10/3 0:15,0.9,16,0.9,16,1.3,16
2017/10/3 0:16,0.9,16,0.9,16,1.1,2
2017/10/3 0:17,0.9,16,0.9,16,1.1,2
2017/10/3 0:18,0.8,16,0.9,16,1.3,16
2017/10/3 0:19,0.8,16,0.9,16,1.1,16
2017/10/3 0:20,0.8,16,0.8,16,0.9,1
2017/10/3 0:21,0.7,16,0.8,16,0.5,2
2017/10/3 0:22,0.7,16,0.7,16,1,1
2017/10/3 0:23,0.6,1,0.7,16,0.6,1
2017/10/3 0:24,0.6,1,0.6,16,0.9,16
2017/10/3 0:25,0.5,1,0.6,16,1.5,16
2017/10/3 0:26,0.6,1,0.6,16,1.3,15
2017/10/3 0:27,0.6,16,0.6,16,1.4,1
2017/10/3 0:28,0.6,1,0.6,16,1.6,1
2017/10/3 0:29,0.7,1,0.7,16,1.8,1
2017/10/3 0:30,0.7,1,0.7,16,1.4,15
2017/10/3 0:31,0.8,1,0.8,1,1,16
2017/10/3 0:32,0.8,1,0.8,1,1.1,15
2017/10/3 0:33,0.8,16,0.8,1,1.4,16
2017/10/3 0:34,0.9,16,0.9,16,1.1,15
2017/10/3 0:35,0.9,16,0.9,16,1.3,15
2017/10/3 0:36,0.8,16,0.9,16,0.8,15
2017/10/3 0:37,0.8,16,0.8,16,0.6,15
2017/10/3 0:38,0.7,16,0.8,16,0.3,16
2017/10/3 0:39,0.5,16,0.7,16,0,16
2017/10/3 0:40,0.5,16,0.5,16,0.1,16
2017/10/3 0:41,0.4,16,0.5,16,0.1,16
2017/10/3 0:42,0.4,16,0.4,16,0.5,1
2017/10/3 0:43,0.3,16,0.4,16,0.8,16
2017/10/3 0:44,0.3,16,0.3,16,0.6,16
2017/10/3 0:45,0.3,16,0.3,16,0.8,15
2017/10/3 0:46,0.2,16,0.3,16,0.5,16
2017/10/3 0:47,0.2,16,0.2,16,0.1,1
2017/10/3 0:48,0.2,16,0.2,16,0,1
2017/10/3 0:49,0.2,16,0.2,16,0,1
2017/10/3 0:50,0.2,16,0.2,16,0,1
2017/10/3 0:51,0.2,16,0.2,16,0,1
2017/10/3 0:52,0.1,1,0.2,16,0.1,1
2017/10/3 0:53,0.1,1,0.1,16,0.1,2
2017/10/3 0:54,0.1,1,0.1,16,0,2
2017/10/3 0:55,0,1,0.1,16,0,3
2017/10/3 0:56,0,1,0,16,0,3
2017/10/3 0:57,0,2,0,16,0.1,2
2017/10/3 0:58,0,2,0,16,0.1,2
2017/10/3 0:59,0,2,0,16,0.1,1
2017/10/3 1:00,0,2,0,16,0.1,1
2017/10/3 1:01,0,2,0,16,0,1
2017/10/3 1:02,0,1,0,1,0.1,16
2017/10/3 1:03,0,1,0,1,0.1,15
2017/10/3 1:04,0,1,0,1,0.1,16
2017/10/3 1:05,0,1,0,1,0.5,16
2017/10/3 1:06,0,16,0,1,0.5,15
2017/10/3 1:07,0,16,0,2,0.1,1
2017/10/3 1:08,0,16,0,2,0,2
2017/10/3 1:09,0,16,0,2,0.1,15
2017/10/3 1:10,0.1,16,0.1,16,1.1,14
2017/10/3 1:11,0.2,16,0.2,16,1.4,15
2017/10/3 1:12,0.3,16,0.3,16,1.8,15
2017/10/3 1:13,0.5,16,0.5,16,1.8,16
2017/10/3 1:14,0.6,16,0.6,16,1.6,16
2017/10/3 1:15,0.7,16,0.7,16,1.6,16
2017/10/3 1:16,0.8,16,0.8,16,1,1
2017/10/3 1:17,0.8,16,0.8,16,0.9,1
2017/10/3 1:18,0.8,16,0.8,16,0.8,1
2017/10/3 1:19,0.8,16,0.8,16,0.1,2
2017/10/3 1:20,0.8,16,0.8,16,0.9,15
2017/10/3 1:21,0.8,16,0.8,16,1,16
2017/10/3 1:22,0.6,16,0.7,16,0.6,16
2017/10/3 1:23,0.5,16,0.6,16,0.8,15
2017/10/3 1:24,0.4,16,0.5,16,0.6,16
2017/10/3 1:25,0.4,16,0.4,16,0.9,16
2017/10/3 1:26,0.4,16,0.4,16,0.8,1
2017/10/3 1:27,0.4,16,0.4,16,1,1
2017/10/3 1:28,0.5,16,0.5,16,1.4,2
2017/10/3 1:29,0.5,16,0.5,16,1.1,3
2017/10/3 1:30,0.6,1,0.6,16,1,3
2017/10/3 1:31,0.5,1,0.6,16,0.6,1
2017/10/3 1:32,0.5,1,0.5,16,0,16
2017/10/3 1:33,0.5,1,0.5,16,0.1,8
2017/10/3 1:34,0.5,1,0.5,16,1.1,14
2017/10/3 1:35,0.5,16,0.5,16,1.3,14
2017/10/3 1:36,0.5,16,0.5,16,1.3,14
2017/10/3 1:37,0.6,16,0.6,16,1.1,14
2017/10/3 1:38,0.6,15,0.6,16,1.1,15
2017/10/3 1:39,0.6,15,0.6,16,1.4,16
2017/10/3 1:40,0.6,15,0.6,1,1.4,16
2017/10/3 1:41,0.7,15,0.7,15,1.4,16
2017/10/3 1:42,0.8,15,0.8,15,1.4,16
2017/10/3 1:43,0.9,15,0.9,15,1.1,1
2017/10/3 1:44,0.9,16,0.9,15,0.8,2
2017/10/3 1:45,0.9,16,0.9,15,0.5,1
2017/10/3 1:46,0.8,1,0.9,15,0.1,2
2017/10/3 1:47,0.7,1,0.8,15,0,3
2017/10/3 1:48,0.6,2,0.7,15,0,4
2017/10/3 1:49,0.5,2,0.6,15,0,5
2017/10/3 1:50,0.4,3,0.5,15,0,5
2017/10/3 1:51,0.3,3,0.4,15,0,10
2017/10/3 1:52,0.2,3,0.3,15,0.1,12
2017/10/3 1:53,0.2,4,0.2,15,1,11
2017/10/3 1:54,0.2,6,0.2,16,1.1,11
2017/10/3 1:55,0.3,9,0.3,16,1.3,11
2017/10/3 1:56,0.4,10,0.4,1,1.3,11
2017/10/3 1:57,0.4,11,0.4,1,0.9,12
2017/10/3 1:58,0.4,11,0.4,2,0.5,12
2017/10/3 1:59,0.4,11,0.4,2,0,12
2017/10/3 2:00,0.4,12,0.4,3,0,12
2017/10/3 2:01,0.4,12,0.4,10,0,12
2017/10/3 2:02,0.4,12,0.4,10,0,12
2017/10/3 2:03,0.4,12,0.4,10,0,12
2017/10/3 2:04,0.3,12,0.4,10,0,12
2017/10/3 2:05,0.2,12,0.3,10,0.5,13
2017/10/3 2:06,0.2,12,0.2,10,1,13
2017/10/3 2:07,0.2,12,0.2,11,0.8,13
2017/10/3 2:08,0.2,12,0.2,11,1.3,12
2017/10/3 2:09,0.3,12,0.3,11,1.3,12
2017/10/3 2:10,0.4,12,0.4,12,1.4,12
2017/10/3 2:11,0.6,12,0.6,12,1.4,12
2017/10/3 2:12,0.6,12,0.6,12,1,12
2017/10/3 2:13,0.7,12,0.7,12,0.8,12
2017/10/3 2:14,0.7,12,0.7,12,0.1,12
2017/10/3 2:15,0.7,13,0.7,12,0,12
2017/10/3 2:16,0.6,13,0.7,12,0,3
2017/10/3 2:17,0.5,13,0.6,12,0,3
2017/10/3 2:18,0.4,14,0.5,12,0,3
2017/10/3 2:19,0.3,15,0.4,12,0,3
2017/10/3 2:20,0.2,16,0.3,12,0,2
2017/10/3 2:21,0.1,1,0.2,12,0,2
2017/10/3 2:22,0,1,0.1,12,0,2
2017/10/3 2:23,0,2,0,12,0,15
2017/10/3 2:24,0,2,0,12,0,15
2017/10/3 2:25,0,1,0,13,0,15
2017/10/3 2:26,0,1,0,13,0,15
2017/10/3 2:27,0,16,0,13,0,11
2017/10/3 2:28,0,15,0,14,0,11
2017/10/3 2:29,0,14,0,15,0,11
2017/10/3 2:30,0,13,0,16,0,11
2017/10/3 2:31,0,13,0,1,0,11
2017/10/3 2:32,0,12,0,1,0,11
2017/10/3 2:33,0,11,0,2,0,10
2017/10/3 2:34,0,11,0,2,0,10
2017/10/3 2:35,0,11,0,1,0,10
2017/10/3 2:36,0,10,0,1,0,10
2017/10/3 2:37,0,10,0,16,0,10
2017/10/3 2:38,0,10,0,15,0,10
2017/10/3 2:39,0,10,0,14,0,10
2017/10/3 2:40,0,10,0,13,0,10
2017/10/3 2:41,0,10,0,13,0,9
2017/10/3 2:42,0,10,0,12,0.1,10
2017/10/3 2:43,0,10,0,11,0.3,10
2017/10/3 2:44,0,10,0,11,0.6,9
2017/10/3 2:45,0.1,10,0.1,10,0.8,11
2017/10/3 2:46,0.1,10,0.1,10,0.6,10
2017/10/3 2:47,0.1,10,0.1,10,0.1,12
2017/10/3 2:48,0.1,10,0.1,10,0.5,12
2017/10/3 2:49,0.1,11,0.1,10,0.4,13
2017/10/3 2:50,0.1,11,0.1,10,0.1,13
2017/10/3 2:51,0.1,11,0.1,10,0,13
2017/10/3 2:52,0.1,11,0.1,10,0,8
2017/10/3 2:53,0.1,11,0.1,10,0,8
2017/10/3 2:54,0.1,11,0.1,10,0,8
2017/10/3 2:55,0.1,11,0.1,10,0,8
2017/10/3 2:56,0,10,0.1,10,0,8
2017/10/3 2:57,0,9,0,10,0,8
2017/10/3 2:58,0,9,0,10,0,8
2017/10/3 2:59,0,8,0,11,0,8
2017/10/3 3:00,0,8,0,11,0,8
2017/10/3 3:01,0,8,0,11,0,8
2017/10/3 3:02,0,8,0,11,0.1,9
2017/10/3 3:03,0,8,0,11,0.3,11
2017/10/3 3:04,0,8,0,11,0.1,8
2017/10/3 3:05,0,8,0,11,0,11
2017/10/3 3:06,0,9,0,10,0.1,10
2017/10/3 3:07,0,9,0,9,0.1,9
2017/10/3 3:08,0,9,0,9,0.1,9
2017/10/3 3:09,0,9,0,8,0.6,8
2017/10/3 3:10,0.1,9,0.1,9,1.1,9
2017/10/3 3:11,0.1,9,0.1,9,1,9
2017/10/3 3:12,0.2,9,0.2,9,1.1,10
2017/10/3 3:13,0.3,9,0.3,9,1.1,9
2017/10/3 3:14,0.4,9,0.4,9,1,9
2017/10/3 3:15,0.4,9,0.4,9,0.9,9
2017/10/3 3:16,0.4,9,0.4,9,0.5,9
2017/10/3 3:17,0.5,9,0.5,9,0.6,8
2017/10/3 3:18,0.5,9,0.5,9,0.6,8
2017/10/3 3:19,0.5,9,0.5,9,0.6,8
2017/10/3 3:20,0.5,9,0.5,9,0.6,9
2017/10/3 3:21,0.5,9,0.5,9,0.6,8
2017/10/3 3:22,0.4,9,0.5,9,0.8,8
2017/10/3 3:23,0.4,9,0.4,9,0.8,10
2017/10/3 3:24,0.4,9,0.4,9,0.6,10
2017/10/3 3:25,0.3,9,0.4,9,0,11
2017/10/3 3:26,0.3,9,0.3,9,0,12
2017/10/3 3:27,0.3,10,0.3,9,0,13
2017/10/3 3:28,0.2,10,0.3,9,0.1,15
2017/10/3 3:29,0.2,11,0.2,9,0.8,1
2017/10/3 3:30,0.2,12,0.2,9,0.6,16
2017/10/3 3:31,0.2,14,0.2,9,0.6,16
2017/10/3 3:32,0.2,14,0.2,9,0.6,16
2017/10/3 3:33,0.2,15,0.2,9,0.9,15
2017/10/3 3:34,0.2,15,0.2,9,0.8,14
2017/10/3 3:35,0.2,15,0.2,9,0.1,15
2017/10/3 3:36,0.2,15,0.2,9,0.3,15
2017/10/3 3:37,0.2,16,0.2,10,0.5,16
2017/10/3 3:38,0.3,15,0.3,15,0.6,15
2017/10/3 3:39,0.2,15,0.3,15,0.6,16
2017/10/3 3:40,0.2,15,0.2,15,0.1,16
2017/10/3 3:41,0.2,15,0.2,15,0.1,16
2017/10/3 3:42,0.1,15,0.2,15,0.1,16
2017/10/3 3:43,0.1,15,0.1,15,0.1,16
2017/10/3 3:44,0.1,16,0.1,15,0.1,1
2017/10/3 3:45,0.1,16,0.1,15,0.1,16
2017/10/3 3:46,0.1,16,0.1,15,0.1,2
2017/10/3 3:47,0.1,16,0.1,15,0,2
2017/10/3 3:48,0,1,0.1,15,0,2
2017/10/3 3:49,0,1,0,15,0.1,4
2017/10/3 3:50,0,1,0,15,0.1,4
2017/10/3 3:51,0,2,0,15,0,3
2017/10/3 3:52,0,2,0,15,0,3
2017/10/3 3:53,0,3,0,15,0,4
2017/10/3 3:54,0,3,0,16,0,5
2017/10/3 3:55,0,3,0,16,0,5
2017/10/3 3:56,0,4,0,16,0,5
2017/10/3 3:57,0,4,0,16,0.1,5
2017/10/3 3:58,0,4,0,1,0,5
2017/10/3 3:59,0,4,0,1,0,5
2017/10/3 4:00,0,4,0,2,0,4
2017/10/3 4:01,0,4,0,2,0,4
2017/10/3 4:02,0,4,0,2,0,4
2017/10/3 4:03,0,4,0,3,0.1,2
2017/10/3 4:04,0,4,0,3,0,3
2017/10/3 4:05,0,4,0,4,0,3
2017/10/3 4:06,0,4,0,4,0.1,3
2017/10/3 4:07,0,3,0,4,0,3
2017/10/3 4:08,0,3,0,4,0.1,3
2017/10/3 4:09,0,3,0,4,0,2
2017/10/3 4:10,0,3,0,4,0,3
2017/10/3 4:11,0,3,0,4,0,5
2017/10/3 4:12,0,3,0,4,0,5
2017/10/3 4:13,0,3,0,4,0,5
2017/10/3 4:14,0,4,0,4,0,5
2017/10/3 4:15,0,4,0,4,0,5
2017/10/3 4:16,0,4,0,4,0.1,9
2017/10/3 4:17,0,4,0,3,0.1,9
2017/10/3 4:18,0,5,0,3,0.1,9
2017/10/3 4:19,0,6,0,3,0.1,9
2017/10/3 4:20,0,7,0,3,0.1,10
2017/10/3 4:21,0,8,0,3,0.1,11
2017/10/3 4:22,0,9,0,3,0,11
2017/10/3 4:23,0,10,0,3,0.1,14
2017/10/3 4:24,0,11,0,4,0.1,14
2017/10/3 4:25,0,12,0,4,0.1,14
2017/10/3 4:26,0,12,0,4,0.4,14
2017/10/3 4:27,0.1,12,0.1,12,1,14
2017/10/3 4:28,0.1,13,0.1,12,0.8,14
2017/10/3 4:29,0.2,13,0.2,13,0.8,14
2017/10/3 4:30,0.2,14,0.2,13,0.1,14
2017/10/3 4:31,0.2,14,0.2,13,0,14
2017/10/3 4:32,0.2,14,0.2,13,0,14
2017/10/3 4:33,0.2,14,0.2,13,0,14
2017/10/3 4:34,0.2,14,0.2,13,0,14
2017/10/3 4:35,0.2,14,0.2,13,0,14
2017/10/3 4:36,0.2,14,0.2,13,0,14
2017/10/3 4:37,0.1,14,0.2,13,0,14
2017/10/3 4:38,0,14,0.1,13,0,14
2017/10/3 4:39,0,14,0,13,0.1,13
2017/10/3 4:40,0,14,0,14,0.1,13
2017/10/3 4:41,0,14,0,14,0.1,10
2017/10/3 4:42,0,13,0,14,0.5,10
2017/10/3 4:43,0,13,0,14,0.4,11
2017/10/3 4:44,0,12,0,14,0.6,8
2017/10/3 4:45,0.1,12,0.1,14,0.9,8
2017/10/3 4:46,0.1,11,0.1,14,0.1,11
2017/10/3 4:47,0.1,11,0.1,14,0.1,15
2017/10/3 4:48,0.1,11,0.1,12,0,16
2017/10/3 4:49,0.1,11,0.1,12,0,16
2017/10/3 4:50,0.1,10,0.1,12,0,4
2017/10/3 4:51,0.1,8,0.1,12,0,4
2017/10/3 4:52,0.1,4,0.1,12,0,4
2017/10/3 4:53,0.1,3,0.1,12,0,4
2017/10/3 4:54,0,3,0.1,12,0,4
2017/10/3 4:55,0,3,0,12,0.1,6
2017/10/3 4:56,0,4,0,11,0.1,6
2017/10/3 4:57,0,4,0,11,0,7
2017/10/3 4:58,0,5,0,11,0,8
2017/10/3 4:59,0,5,0,11,0,7
2017/10/3 5:00,0,6,0,10,0,7
2017/10/3 5:01,0,6,0,8,0,7
2017/10/3 5:02,0,7,0,4,0,7
2017/10/3 5:03,0,7,0,3,0.1,10
2017/10/3 5:04,0,8,0,3,0.1,10
2017/10/3 5:05,0,8,0,3,0.3,11
2017/10/3 5:06,0,8,0,4,0.1,10
2017/10/3 5:07,0,8,0,4,0,8
2017/10/3 5:08,0,9,0,5,0.1,9
2017/10/3 5:09,0,9,0,5,0.1,10
2017/10/3 5:10,0,9,0,6,0.1,7
2017/10/3 5:11,0,9,0,6,0.1,9
2017/10/3 5:12,0,9,0,7,0.1,9
2017/10/3 5:13,0.1,9,0.1,9,0.9,9
2017/10/3 5:14,0.1,9,0.1,9,0.8,9
2017/10/3 5:15,0.1,9,0.1,9,0.1,7
2017/10/3 5:16,0.1,8,0.1,9,0.1,7
2017/10/3 5:17,0.1,8,0.1,9,0,6
2017/10/3 5:18,0.1,8,0.1,9,0,6
2017/10/3 5:19,0.1,7,0.1,9,0,6
2017/10/3 5:20,0.1,7,0.1,9,0,6
2017/10/3 5:21,0.1,7,0.1,9,0,6
2017/10/3 5:22,0.1,6,0.1,9,0.1,16
2017/10/3 5:23,0,6,0.1,9,0.4,15
2017/10/3 5:24,0,5,0,9,0.1,16
2017/10/3 5:25,0,4,0,8,0.1,16
2017/10/3 5:26,0,2,0,8,0,16
2017/10/3 5:27,0,1,0,8,0,16
2017/10/3 5:28,0,16,0,8,0.1,16
2017/10/3 5:29,0,16,0,7,0,15
2017/10/3 5:30,0,16,0,7,0.1,15
2017/10/3 5:31,0,16,0,7,0,15
2017/10/3 5:32,0,16,0,6,0.1,8
2017/10/3 5:33,0,15,0,6,0,8
2017/10/3 5:34,0,15,0,5,0,9
2017/10/3 5:35,0,14,0,3,0,12
2017/10/3 5:36,0,14,0,2,0,14
2017/10/3 5:37,0,13,0,1,0,14
2017/10/3 5:38,0,13,0,16,0.1,10
2017/10/3 5:39,0,12,0,16,0.1,10
2017/10/3 5:40,0,11,0,16,0.1,8
2017/10/3 5:41,0,11,0,16,0,10
2017/10/3 5:42,0,11,0,16,0,9
2017/10/3 5:43,0,11,0,15,0.3,11
2017/10/3 5:44,0.1,11,0.1,11,1.3,10
2017/10/3 5:45,0.1,10,0.1,11,0.6,8
2017/10/3 5:46,0.1,10,0.1,11,1,9
2017/10/3 5:47,0.2,10,0.2,10,1.1,9
2017/10/3 5:48,0.3,10,0.3,10,0.8,11
2017/10/3 5:49,0.3,10,0.3,10,0.8,11
2017/10/3 5:50,0.4,10,0.4,10,1.5,9
2017/10/3 5:51,0.5,10,0.5,10,1.9,10
2017/10/3 5:52,0.5,10,0.5,10,1.5,9
2017/10/3 5:53,0.6,10,0.6,10,1.5,9
2017/10/3 5:54,0.5,10,0.6,10,1,11
2017/10/3 5:55,0.5,10,0.6,10,0.6,10
2017/10/3 5:56,0.5,10,0.5,10,0.1,10
2017/10/3 5:57,0.4,10,0.5,10,0.1,9
2017/10/3 5:58,0.4,10,0.4,10,1,9
2017/10/3 5:59,0.4,9,0.5,10,1.1,9
2017/10/3 6:00,0.4,9,0.4,10,0.6,9
2017/10/3 6:01,0.4,9,0.4,10,1.5,9
2017/10/3 6:02,0.5,9,0.5,10,2,10
2017/10/3 6:03,0.4,10,0.5,10,0.8,8
2017/10/3 6:04,0.4,10,0.4,10,0.1,10
2017/10/3 6:05,0.4,10,0.4,10,1,9
2017/10/3 6:06,0.5,10,0.5,10,1.5,8
2017/10/3 6:07,0.5,10,0.5,9,1.3,8
2017/10/3 6:08,0.4,10,0.5,9,0.1,13
2017/10/3 6:09,0.4,10,0.4,9,0.1,11
2017/10/3 6:10,0.3,9,0.4,9,0,5
2017/10/3 6:11,0.3,8,0.3,9,0.8,3
2017/10/3 6:12,0.2,7,0.3,9,0.8,3
2017/10/3 6:13,0.2,5,0.3,10,0.6,3
2017/10/3 6:14,0.3,5,0.3,10,0,2
2017/10/3 6:15,0.2,4,0.3,10,0,4
2017/10/3 6:16,0.1,4,0.2,10,0.1,13
2017/10/3 6:17,0.1,3,0.1,10,0.1,10
2017/10/3 6:18,0.2,4,0.2,10,1,11
2017/10/3 6:19,0.3,4,0.3,10,1,11
2017/10/3 6:20,0.3,4,0.3,9,0.9,9
2017/10/3 6:21,0.3,5,0.3,8,0.1,10
2017/10/3 6:22,0.2,12,0.3,6,0.3,14
2017/10/3 6:23,0.2,12,0.2,5,0.1,15
2017/10/3 6:24,0.2,13,0.2,4,0.8,16
2017/10/3 6:25,0.3,13,0.3,4,0.8,16
2017/10/3 6:26,0.4,13,0.4,13,1,13
2017/10/3 6:27,0.4,13,0.4,13,0.9,12
2017/10/3 6:28,0.3,14,0.4,13,0.4,14
2017/10/3 6:29,0.2,14,0.3,13,0,16
2017/10/3 6:30,0.2,15,0.2,13,0,1
2017/10/3 6:31,0.2,15,0.2,13,0.8,8
2017/10/3 6:32,0.3,15,0.3,13,0.6,7
2017/10/3 6:33,0.3,16,0.3,13,0.8,5
2017/10/3 6:34,0.3,1,0.3,13,1,5
2017/10/3 6:35,0.3,3,0.3,13,0.9,5
2017/10/3 6:36,0.2,3,0.3,13,0.5,4
2017/10/3 6:37,0.2,3,0.2,13,0.6,16
2017/10/3 6:38,0.3,3,0.3,14,1.1,16
2017/10/3 6:39,0.3,4,0.3,15,0.8,1
2017/10/3 6:40,0.3,4,0.3,15,0.1,16
2017/10/3 6:41,0.3,3,0.3,15,0.3,8
2017/10/3 6:42,0.2,4,0.3,15,0.8,8
2017/10/3 6:43,0.2,4,0.2,16,0.1,7
2017/10/3 6:44,0.2,3,0.2,1,0,15
2017/10/3 6:45,0.1,3,0.2,3,0,2
2017/10/3 6:46,0.1,3,0.1,3,0,5
2017/10/3 6:47,0.1,5,0.1,3,0.1,6
2017/10/3 6:48,0.1,6,0.1,3,1.3,9
2017/10/3 6:49,0.1,7,0.1,4,1.3,9
2017/10/3 6:50,0.1,7,0.1,3,0.5,6
2017/10/3 6:51,0.1,6,0.1,3,0,16
2017/10/3 6:52,0.1,6,0.1,4,0,5
2017/10/3 6:53,0.1,5,0.1,4,0,1
2017/10/3 6:54,0.1,6,0.1,3,0.1,9
2017/10/3 6:55,0.1,7,0.1,3,0.9,10
2017/10/3 6:56,0.2,8,0.2,7,1.4,11
2017/10/3 6:57,0.4,9,0.4,9,2.2,9
2017/10/3 6:58,0.3,8,0.4,9,1.1,9
2017/10/3 6:59,0.3,8,0.3,9,0.9,7
2017/10/3 7:00,0.3,8,0.3,9,0.1,11
2017/10/3 7:01,0.3,9,0.3,9,0.1,9
2017/10/3 7:02,0.4,9,0.4,9,1.1,8
2017/10/3 7:03,0.4,9,0.4,9,1,8
2017/10/3 7:04,0.5,9,0.5,9,1.5,9
2017/10/3 7:05,0.6,9,0.6,9,1.6,9
2017/10/3 7:06,0.6,9,0.6,9,1.8,9
2017/10/3 7:07,0.5,9,0.6,9,1.9,10
2017/10/3 7:08,0.4,9,0.5,9,0.8,11
2017/10/3 7:09,0.5,9,0.5,9,0.6,10
2017/10/3 7:10,0.5,10,0.5,9,0.8,12
2017/10/3 7:11,0.6,10,0.6,9,0.6,12
2017/10/3 7:12,0.6,10,0.6,9,0.6,9
2017/10/3 7:13,0.5,10,0.6,9,0.3,9
2017/10/3 7:14,0.4,10,0.5,9,0.1,10
2017/10/3 7:15,0.3,10,0.4,9,0.1,7
2017/10/3 7:16,0.2,10,0.3,9,0.1,1
2017/10/3 7:17,0.2,11,0.2,10,0.1,11
2017/10/3 7:18,0.2,10,0.2,10,1.5,10
2017/10/3 7:19,0.3,10,0.3,10,1.6,9
2017/10/3 7:20,0.3,9,0.3,10,0.8,9
2017/10/3 7:21,0.3,9,0.3,10,0.6,8
2017/10/3 7:22,0.3,9,0.3,10,1.6,10
2017/10/3 7:23,0.3,9,0.3,10,0.5,5
2017/10/3 7:24,0.4,10,0.4,10,1.9,8
2017/10/3 7:25,0.5,10,0.5,10,2,10
2017/10/3 7:26,0.6,10,0.6,10,1.6,9
2017/10/3 7:27,0.7,9,0.7,9,1.3,8
2017/10/3 7:28,0.7,9,0.7,9,1.6,9
2017/10/3 7:29,0.7,9,0.7,9,1.6,9
2017/10/3 7:30,0.8,9,0.8,9,1.9,8
2017/10/3 7:31,0.9,9,0.9,9,2.6,8
2017/10/3 7:32,1,9,1,9,2.9,8
2017/10/3 7:33,1.1,9,1.1,9,1.8,9
2017/10/3 7:34,1.1,9,1.1,9,2.2,9
2017/10/3 7:35,1.2,9,1.2,9,2.6,8
2017/10/3 7:36,1.2,9,1.2,9,2.4,8
2017/10/3 7:37,1.2,9,1.2,9,2.2,7
2017/10/3 7:38,1.2,8,1.2,9,1.5,7
2017/10/3 7:39,1.2,8,1.2,9,1.8,8
2017/10/3 7:40,1.2,8,1.3,8,2.2,8
2017/10/3 7:41,1.3,8,1.3,8,3,8
2017/10/3 7:42,1.2,8,1.3,8,2.5,8
2017/10/3 7:43,1.3,8,1.3,8,2.7,8
2017/10/3 7:44,1.2,8,1.3,8,1.4,8
2017/10/3 7:45,1.1,8,1.2,8,1.5,8
2017/10/3 7:46,1.1,8,1.1,8,1.9,8
2017/10/3 7:47,1.1,8,1.1,8,1.4,8
2017/10/3 7:48,1,8,1.1,8,0.9,8
2017/10/3 7:49,1,8,1,8,1.8,7
2017/10/3 7:50,1,8,1,8,1.8,8
2017/10/3 7:51,0.9,8,1,8,1.9,7
2017/10/3 7:52,0.9,8,0.9,8,1.5,7
2017/10/3 7:53,0.8,7,0.9,8,0.8,8
2017/10/3 7:54,0.8,7,0.8,8,0,2
2017/10/3 7:55,0.8,7,0.8,8,0.9,6
2017/10/3 7:56,0.7,7,0.8,8,0.9,6
2017/10/3 7:57,0.7,7,0.7,8,1.3,7
2017/10/3 7:58,0.8,7,0.8,8,1.6,9
2017/10/3 7:59,0.7,7,0.7,8,0.5,2
2017/10/3 8:00,0.6,7,0.7,8,0.8,9
2017/10/3 8:01,0.5,7,0.6,8,0.1,8
2017/10/3 8:02,0.4,7,0.4,8,1.6,9
2017/10/3 8:03,0.5,8,0.5,7,2.2,8
2017/10/3 8:04,0.6,8,0.6,7,2.1,9
2017/10/3 8:05,0.6,8,0.6,7,1.1,10
2017/10/3 8:06,0.5,9,0.6,7,0.3,11
2017/10/3 8:07,0.5,9,0.5,7,1.9,10
2017/10/3 8:08,0.5,9,0.5,7,1.9,10
2017/10/3 8:09,0.5,9,0.5,7,1,7
2017/10/3 8:10,0.6,9,0.6,7,2.4,9
2017/10/3 8:11,0.7,9,0.7,9,1.5,9
2017/10/3 8:12,0.7,9,0.8,9,1.5,9
2017/10/3 8:13,0.7,9,0.7,9,2.4,8
2017/10/3 8:14,0.8,9,0.8,9,2,9
2017/10/3 8:15,0.8,9,0.8,9,2,9
2017/10/3 8:16,1,9,1,9,1.9,9
2017/10/3 8:17,1.1,9,1.1,9,3.3,9
2017/10/3 8:18,1.2,9,1.2,9,3.2,9
2017/10/3 8:19,1.3,9,1.3,9,2.1,10
2017/10/3 8:20,1.2,9,1.3,9,1.5,10
2017/10/3 8:21,1.2,9,1.3,9,1.3,11
2017/10/3 8:22,1.3,10,1.3,9,1,11
2017/10/3 8:23,1.2,10,1.3,9,1,10
2017/10/3 8:24,1.1,10,1.2,9,1.1,10
2017/10/3 8:25,1.1,10,1.1,9,0.8,10
2017/10/3 8:26,1,10,1.1,9,1.1,9
2017/10/3 8:27,0.8,10,1,9,1,9
2017/10/3 8:28,0.7,11,0.8,9,2.7,9
2017/10/3 8:29,0.6,11,0.7,9,2.4,9
2017/10/3 8:30,0.6,11,0.6,9,1,15
2017/10/3 8:31,0.6,11,0.6,10,2.4,16
2017/10/3 8:32,0.7,11,0.7,10,2,1
2017/10/3 8:33,0.7,11,0.7,10,1.8,16
2017/10/3 8:34,0.7,12,0.7,10,1.8,9
2017/10/3 8:35,0.7,12,0.7,10,0.8,5
2017/10/3 8:36,0.8,12,0.8,10,2.1,10
2017/10/3 8:37,0.7,12,0.8,10,1.3,14
2017/10/3 8:38,0.7,13,0.8,12,2,15
2017/10/3 8:39,0.8,14,0.8,12,2.5,16
2017/10/3 8:40,1,14,1,14,2.4,1
2017/10/3 8:41,1.1,14,1.1,14,4.3,11
2017/10/3 8:42,1.4,13,1.4,13,6,9
2017/10/3 8:43,1.6,13,1.6,13,5.8,14
2017/10/3 8:44,1.8,14,1.8,13,4.4,16
2017/10/3 8:45,1.9,14,1.9,14,2.4,16
2017/10/3 8:46,2,15,2,14,2,16
2017/10/3 8:47,2.1,15,2.1,15,2.2,15
2017/10/3 8:48,2.1,15,2.1,15,1.8,14
2017/10/3 8:49,2,15,2.1,15,0.5,1
2017/10/3 8:50,1.8,15,2,15,2.2,7
2017/10/3 8:51,1.8,15,1.9,15,3,7
2017/10/3 8:52,1.5,16,1.7,15,3.2,6
2017/10/3 8:53,1.6,2,1.6,15,4.3,4
2017/10/3 8:54,1.5,3,1.6,15,4.4,4
2017/10/3 8:55,1.6,4,1.6,15,6.5,5
2017/10/3 8:56,1.6,4,1.7,15,3.1,3
2017/10/3 8:57,1.6,5,1.6,15,1.5,9
2017/10/3 8:58,1.7,5,1.7,15,4.3,2
2017/10/3 8:59,1.9,5,1.9,15,3.7,6
2017/10/3 9:00,2.1,5,2.1,5,3.3,6
2017/10/3 9:01,2.1,5,2.1,5,2.7,5
2017/10/3 9:02,2,5,2.1,5,1.5,4
2017/10/3 9:03,1.8,4,2,5,1,4
2017/10/3 9:04,1.6,4,1.7,5,1.5,16
2017/10/3 9:05,1.3,3,1.5,5,0.9,16
2017/10/3 9:06,1.2,3,1.3,5,1.5,16
2017/10/3 9:07,1.2,3,1.2,5,1.8,2
2017/10/3 9:08,1.1,3,1.2,5,1.3,3
2017/10/3 9:09,0.9,2,1,5,1.4,1
2017/10/3 9:10,0.7,2,0.9,5,1.8,3
2017/10/3 9:11,0.6,2,0.7,5,1.6,4
2017/10/3 9:12,0.7,2,0.7,5,2.4,2
2017/10/3 9:13,0.9,1,0.9,4,3.7,16
2017/10/3 9:14,1,2,1,4,2.6,2
2017/10/3 9:15,1.2,2,1.2,3,4.2,3
2017/10/3 9:16,1.3,2,1.3,2,2.9,2
2017/10/3 9:17,1.3,2,1.3,2,1.9,5
2017/10/3 9:18,1.4,3,1.4,2,1.9,5
2017/10/3 9:19,1.4,3,1.4,2,2.4,7
2017/10/3 9:20,1.6,3,1.6,3,2.5,6
2017/10/3 9:21,1.7,4,1.7,4,2.1,7
2017/10/3 9:22,1.7,4,1.7,4,2.9,9
2017/10/3 9:23,1.5,5,1.7,4,2,9
2017/10/3 9:24,1.4,5,1.5,4,0.8,3
2017/10/3 9:25,1.2,6,1.4,4,1.5,4
2017/10/3 9:26,1.1,6,1.2,4,1,4
2017/10/3 9:27,1,5,1.1,4,1.5,15
2017/10/3 9:28,0.9,5,1,4,0.4,1
2017/10/3 9:29,0.8,4,0.9,4,0.9,15
2017/10/3 9:30,0.8,2,0.8,4,2.6,16
2017/10/3 9:31,0.9,1,0.9,4,3.2,16
2017/10/3 9:32,1,1,1,5,5.1,3
2017/10/3 9:33,1.2,2,1.2,5,4.2,5
2017/10/3 9:34,1.5,2,1.5,2,3.5,5
2017/10/3 9:35,1.6,2,1.6,2,3.8,5
2017/10/3 9:36,1.9,3,1.9,3,5.2,7
2017/10/3 9:37,2,4,2,4,3.7,8
2017/10/3 9:38,2.1,4,2.1,4,3.6,10
2017/10/3 9:39,2.2,4,2.2,4,2.4,4
2017/10/3 9:40,2.4,4,2.4,4,5.7,2
2017/10/3 9:41,2.5,4,2.5,4,5.2,2
2017/10/3 9:42,2.5,4,2.6,4,4.2,3
2017/10/3 9:43,2.5,4,2.6,4,4.9,2
2017/10/3 9:44,2.6,4,2.6,4,3.2,2
2017/10/3 9:45,2.6,4,2.6,4,3.5,7
2017/10/3 9:46,2.5,4,2.6,4,3.9,6
2017/10/3 9:47,2.6,4,2.6,4,6,4
2017/10/3 9:48,3,4,3,4,7,3
2017/10/3 9:49,3,4,3,4,3.8,3
2017/10/3 9:50,2.9,3,3,4,5.8,1
2017/10/3 9:51,2.9,4,2.9,4,6.4,1
2017/10/3 9:52,2.8,4,2.8,4,5,5
2017/10/3 9:53,2.6,4,2.7,4,3,3
2017/10/3 9:54,2.6,4,2.6,4,4.8,2
2017/10/3 9:55,2.6,3,2.6,4,4.1,4
2017/10/3 9:56,2.6,3,2.6,4,3.9,2
2017/10/3 9:57,2.5,3,2.6,4,3.5,5
2017/10/3 9:58,2.2,3,2.5,4,2.7,3
2017/10/3 9:59,2.3,3,2.3,3,8.6,3
2017/10/3 10:00,2.4,3,2.4,3,8.2,3
2017/10/3 10:01,2.4,3,2.4,4,5.4,3
2017/10/3 10:02,2.3,3,2.4,4,3.7,2
2017/10/3 10:03,2.5,3,2.5,4,6.1,10
2017/10/3 10:04,2.3,3,2.5,4,1.8,4
2017/10/3 10:05,2.2,3,2.3,3,2.4,10
2017/10/3 10:06,2.3,3,2.3,3,4.8,3
2017/10/3 10:07,2.3,3,2.4,3,6.1,16
2017/10/3 10:08,2.2,2,2.3,3,4.2,15
2017/10/3 10:09,2.2,3,2.3,3,3.8,11
2017/10/3 10:10,2.1,5,2.1,3,3.9,5
2017/10/3 10:11,1.9,6,2.1,3,3.2,4
2017/10/3 10:12,1.9,6,1.9,3,3.7,3
2017/10/3 10:13,1.9,4,1.9,3,4.4,1
2017/10/3 10:14,1.8,4,1.9,3,1.1,13
2017/10/3 10:15,1.8,2,1.8,3,1.8,13
2017/10/3 10:16,1.5,1,1.8,3,2.2,13
2017/10/3 10:17,1.6,2,1.6,3,7,4
2017/10/3 10:18,1.7,3,1.7,2,2.9,4
2017/10/3 10:19,1.7,2,1.7,3,3.6,2
2017/10/3 10:20,1.6,2,1.7,6,3.1,3
2017/10/3 10:21,1.9,2,1.9,6,6.9,16
2017/10/3 10:22,1.8,2,1.9,6,5.5,16
2017/10/3 10:23,1.8,2,1.8,4,7.4,4
2017/10/3 10:24,1.9,2,1.9,2,4.4,5
2017/10/3 10:25,2.1,2,2.1,2,3.7,5
2017/10/3 10:26,2.2,2,2.2,2,3.6,13
2017/10/3 10:27,2,2,2.2,2,4.1,16
2017/10/3 10:28,2.1,1,2.1,2,5.8,1
2017/10/3 10:29,2.1,1,2.1,2,7.2,15
2017/10/3 10:30,2.3,1,2.3,1,10.1,15
2017/10/3 10:31,2.5,1,2.5,1,9.5,1
2017/10/3 10:32,3,1,3,1,10.6,16
2017/10/3 10:33,3.4,16,3.4,1,14.4,16
2017/10/3 10:34,3.7,16,3.7,16,10.6,1
2017/10/3 10:35,3.9,16,3.9,16,9.5,16
2017/10/3 10:36,4,1,4,1,5.6,1
2017/10/3 10:37,4.4,1,4.4,1,10.9,16
2017/10/3 10:38,4.8,1,4.8,1,12.2,1
2017/10/3 10:39,4.8,1,4.8,1,4.7,15
2017/10/3 10:40,4.6,16,4.8,1,5.7,1
2017/10/3 10:41,4.4,16,4.6,1,6.9,16
2017/10/3 10:42,4.2,1,4.4,1,6.8,3
2017/10/3 10:43,4,1,4.1,1,11.9,2
2017/10/3 10:44,4,1,4,1,8.3,15
2017/10/3 10:45,3.8,1,4,1,9.3,15
2017/10/3 10:46,3.9,1,3.9,1,6.7,2
2017/10/3 10:47,3.5,1,3.9,1,4.5,6
2017/10/3 10:48,3,1,3.4,1,3.5,3
2017/10/3 10:49,2.9,1,3,1,4.4,2
2017/10/3 10:50,2.9,1,2.9,16,5.4,1
2017/10/3 10:51,2.8,1,2.9,1,7.6,16
2017/10/3 10:52,3,1,3,1,8.9,15
2017/10/3 10:53,2.7,1,2.9,1,4.2,2
2017/10/3 10:54,2.5,1,2.7,1,5.5,4
2017/10/3 10:55,2.4,1,2.5,1,4.7,14
2017/10/3 10:56,2.7,1,2.7,1,16.6,16
2017/10/3 10:57,2.9,16,2.9,1,11.4,1
2017/10/3 10:58,3.3,16,3.3,16,10.3,2
2017/10/3 10:59,3.4,16,3.4,16,7.2,16
2017/10/3 11:00,3.4,16,3.4,16,3,15
2017/10/3 11:01,3.6,16,3.6,16,11.5,2
2017/10/3 11:02,3.9,16,3.9,16,14,16
2017/10/3 11:03,4.4,16,4.4,16,12.5,2
2017/10/3 11:04,4.6,16,4.6,16,10.9,16
2017/10/3 11:05,4.6,16,4.6,16,6.4,16
2017/10/3 11:06,4.3,16,4.6,16,7.5,15
2017/10/3 11:07,4.5,16,4.5,16,7.4,1
2017/10/3 11:08,4.9,16,4.9,16,13.6,1
2017/10/3 11:09,5.1,16,5.1,16,12.2,16
2017/10/3 11:10,5.6,16,5.6,16,13.9,16
2017/10/3 11:11,5.7,16,5.7,16,12.2,1
2017/10/3 11:12,5.5,16,5.6,16,13.1,1
2017/10/3 11:13,5.4,1,5.5,16,13.3,1
2017/10/3 11:14,5.3,1,5.4,16,7.5,16
2017/10/3 11:15,5.4,1,5.4,16,7.7,1
2017/10/3 11:16,5.7,1,5.7,16,8.5,2
2017/10/3 11:17,5.7,1,5.7,16,9.7,1
2017/10/3 11:18,5.2,1,5.7,16,7.6,3
2017/10/3 11:19,5,1,5.1,16,5.6,16
2017/10/3 11:20,4.9,1,5,16,10.8,1
2017/10/3 11:21,4.9,1,5,1,12.8,15
2017/10/3 11:22,4.6,1,4.9,1,5.8,16
2017/10/3 11:23,4.5,1,4.5,1,10.9,16
2017/10/3 11:24,4.7,1,4.7,1,13.2,1
2017/10/3 11:25,4.5,1,4.8,1,9.3,15
2017/10/3 11:26,4.2,1,4.5,1,2.7,16
2017/10/3 11:27,4.1,1,4.1,1,11.1,16
2017/10/3 11:28,4.3,1,4.3,1,8.9,1
2017/10/3 11:29,4.3,1,4.5,1,10,1
2017/10/3 11:30,4.1,1,4.4,1,5.6,3
2017/10/3 11:31,4.1,1,4.1,1,11.5,16
2017/10/3 11:32,4.2,1,4.2,1,11,16
2017/10/3 11:33,4.1,1,4.2,1,11.7,16
2017/10/3 11:34,4.5,1,4.5,1,16.1,16
2017/10/3 11:35,4.6,1,4.6,1,14.1,15
2017/10/3 11:36,5,1,5,1,10.2,15
2017/10/3 11:37,5,1,5.1,1,8.2,15
2017/10/3 11:38,5.2,1,5.2,1,18,16
2017/10/3 11:39,5.3,1,5.3,1,10.6,16